This is the latest recevied weather packets stored in our database for station/object HS5XHC-1. If no packets are shown the sender has not sent any weather packets the latest 10 day(s).
| Time | Temp. | Humidity | Pressure | Rain* | Wind** | Luminosity | Snow |
|---|---|---|---|---|---|---|---|
| 1777561051 | 28.89° C | 53% | 968 hPa | - | - | 0 W/m² | - |
| 1777560427 | 28.33° C | 54% | 968 hPa | - | - | 0 W/m² | - |
| 1777559803 | 27.78° C | 54% | 968 hPa | - | - | 0 W/m² | - |
| 1777559179 | 27.78° C | 54% | 968 hPa | - | - | 0 W/m² | - |
| 1777558555 | 28.33° C | 53% | 968 hPa | - | - | 0 W/m² | - |
| 1777557930 | 27.78° C | 53% | 968 hPa | - | - | 0 W/m² | - |
| 1777557307 | 27.78° C | 53% | 967 hPa | - | - | 0 W/m² | - |
| 1777556683 | 27.22° C | 54% | 967 hPa | - | - | 0 W/m² | - |
| 1777556059 | 29.44° C | 48% | 967 hPa | - | - | 0 W/m² | - |
| 1777555435 | 30° C | 46% | 967 hPa | - | - | 0 W/m² | - |
| 1777554811 | 29.44° C | 47% | 967 hPa | - | - | 0 W/m² | - |
| 1777554187 | 29.44° C | 47% | 967 hPa | - | - | 0 W/m² | - |
| 1777553563 | 28.89° C | 49% | 967 hPa | - | - | 0 W/m² | - |
| 1777552939 | 30° C | 49% | 967 hPa | - | - | 0 W/m² | - |
| 1777552315 | 30° C | 48% | 968 hPa | - | - | 0 W/m² | - |
| 1777551691 | 30° C | 45% | 968 hPa | - | - | 0 W/m² | - |
| 1777551068 | 31.67° C | 50% | 966 hPa | - | - | 0 W/m² | - |
| 1777550442 | 31.67° C | 49% | 965 hPa | - | - | 0 W/m² | - |
| 1777549818 | 32.22° C | 48% | 965 hPa | - | - | 0 W/m² | - |
| 1777549194 | 33.33° C | 43% | 965 hPa | - | - | 0 W/m² | - |
| 1777548570 | 33.33° C | 40% | 966 hPa | - | - | 0 W/m² | - |
| 1777547946 | 35.56° C | 34% | 965 hPa | - | - | 0 W/m² | - |
| 1777547322 | 35.56° C | 33% | 964 hPa | - | - | 0 W/m² | - |
| 1777546698 | 35.56° C | 33% | 964 hPa | - | - | 0 W/m² | - |
| 1777546074 | 35.56° C | 33% | 964 hPa | - | - | 0 W/m² | - |
* Rain since midnight (hover to see other rain measurements)
** Current wind speed in m/s (hover to see current wind gust speed)